TimeEDT,TemperatureF,Dew PointF,Humidity,Sea Level PressureIn,VisibilityMPH,Wind Direction,Wind SpeedMPH,Gust SpeedMPH,PrecipitationIn,Events,Conditions,WindDirDegrees,DateUTC
12:56 AM,59.0,57.9,96,29.62,-9999.0,ESE,13.8,20.7,N/A,,Unknown,110,2012-10-31 04:56:00
1:56 AM,57.9,57.0,97,29.65,-9999.0,ESE,15.0,-,0.02,,Unknown,110,2012-10-31 05:56:00
2:56 AM,57.9,57.0,97,29.63,-9999.0,SE,6.9,18.4,0.03,,Unknown,130,2012-10-31 06:56:00
3:56 AM,57.9,57.0,97,29.61,-9999.0,ESE,11.5,20.7,0.14,,Unknown,120,2012-10-31 07:56:00
4:56 AM,57.0,57.0,100,29.61,-9999.0,ESE,13.8,24.2,N/A,,Unknown,120,2012-10-31 08:56:00
5:56 AM,57.0,57.0,100,29.58,-9999.0,ESE,12.7,17.3,0.01,,Unknown,110,2012-10-31 09:56:00
6:56 AM,57.0,57.0,100,29.56,-9999.0,ESE,15.0,20.7,0.01,,Unknown,120,2012-10-31 10:56:00
7:56 AM,57.0,55.9,96,29.55,-9999.0,ESE,10.4,17.3,N/A,,Unknown,120,2012-10-31 11:56:00
8:56 AM,57.0,55.9,96,29.55,-9999.0,ESE,9.2,-,0.01,,Unknown,120,2012-10-31 12:56:00
9:56 AM,57.0,55.9,96,29.55,-9999.0,SSE,9.2,19.6,0.06,,Unknown,150,2012-10-31 13:56:00
10:56 AM,57.0,55.9,96,29.56,-9999.0,Variable,6.9,-,N/A,,Unknown,0,2012-10-31 14:56:00
11:56 AM,57.0,55.9,96,29.54,-9999.0,Variable,3.5,-,N/A,,Unknown,0,2012-10-31 15:56:00
12:56 PM,57.9,55.9,93,29.53,-9999.0,Variable,6.9,17.3,N/A,,Unknown,0,2012-10-31 16:56:00
1:56 PM,57.9,55.0,90,29.51,-9999.0,SE,8.1,-,N/A,,Unknown,130,2012-10-31 17:56:00
2:56 PM,57.9,55.0,90,29.51,-9999.0,Variable,6.9,-,N/A,,Unknown,0,2012-10-31 18:56:00
3:56 PM,57.0,55.0,93,29.49,-9999.0,ESE,10.4,18.4,0.01,,Unknown,120,2012-10-31 19:56:00
4:56 PM,55.9,55.0,97,29.49,-9999.0,Variable,6.9,-,N/A,,Unknown,0,2012-10-31 20:56:00
5:56 PM,55.0,54.0,96,29.48,-9999.0,SE,8.1,-,N/A,,Unknown,130,2012-10-31 21:56:00
6:56 PM,55.0,54.0,96,29.49,-9999.0,South,6.9,-,0.02,,Unknown,180,2012-10-31 22:56:00
7:56 PM,53.1,53.1,100,29.49,-9999.0,SSE,5.8,-,0.09,,Unknown,160,2012-10-31 23:56:00
8:56 PM,50.0,48.0,93,29.51,-9999.0,Variable,6.9,-,0.01,,Unknown,0,2012-11-01 00:56:00
9:56 PM,50.0,48.9,96,29.50,-9999.0,SSE,3.5,-,N/A,,Unknown,150,2012-11-01 01:56:00
10:56 PM,48.0,46.9,96,29.50,-9999.0,South,4.6,-,N/A,,Unknown,170,2012-11-01 02:56:00
11:56 PM,46.9,45.0,93,29.51,-9999.0,South,5.8,-,N/A,,Unknown,180,2012-11-01 03:56:00